User: anonymous   Login
Location: Glencliff
(36.1226°N, 86.7183°W)
Time: 19:57:26
(UTC+00:00)
Language:

SL-16 R/B - Orbit

View from above orbital plane
View from above orbital plane
View from above satellite
View from above satellite

Ground track
Ground track

The orbit data is extracted from the following two-line orbital elements,

1 28353U 04021B   19285.87024243 +.00000042 +00000-0 +46805-4 0  9996
2 28353 070.9983 100.6758 0005888 329.8558 030.2225 14.14228776791996
Epoch (UTC): 12 October 2019 20:53:08
Eccentricity: 0.0005888
inclination: 70.9983°
perigee height: 840 km
apogee height: 849 km
right ascension of ascending node: 100.6758°
argument of perigee: 329.8558°
revolutions per day: 14.14228776
mean anomaly at epoch: 30.2225°
orbit number at epoch: 79199

The dashed part of the orbit path shows where the satellite is in the earth's shadow,  

DLR